Weather WX

World > North America > United States > Mississippi

Rienzi, Mississippi Regional Weather

Lat: 34.76N, Lon: 88.53W
Wx Zone: MSZ005
Feedback

Rienzi, MS Regional Weather

Expires:201906210000;;810671
ASUS44 KJAN 202310
RWRMS 

MISSISSIPPI HOURLY WEATHER ROUNDUP
NATIONAL WEATHER SERVICE JACKSON MS
600 PM CDT THU JUN 20 2019

NOTE: "FAIR: INDICATES FEW OR NO CLOUDS BELOW 12,000 FEET WITH NO
SIGNIFICANT WEATHER AND/OR OBSTRUCTIONS TO VISIBILITY.


MSZ003>006-009-014>017-022>024-029>033-037>039-210000-
NORTHEAST MISSISSIPPI
  
CITY           SKY/WX    TMP DP  RH WIND       PRES   REMARKS
ABERDEEN       FAIR      84  82  94 W6G13     29.87S HX 101           
COLUMBUS AFB   FAIR      87  72  62 NW9       29.85S HX  93           
CORINTH        FAIR      84  68  58 SW8G14    29.85R                  
GOLDN TRIANGLE FAIR      88  74  63 VRB6      29.86F HX  96           
STARKVILLE     FAIR      88  72  58 W7        29.87F HX  94           
TUPELO         FAIR      88  67  49 W3        29.85S HX  91           
$$


SKY/WX - Weather  TMP - Temperature  DP - Dew Point  RH - Relative Humidity
WIND - Wind Direction/Speed PRES - Barometric Pressure VSB - Visibility
WCI - Wind Chill Index E13G22 Wind - East Wind 13 mph/Gusts of 22 mph